| time (UTC) | temp F | wind direction | speed knots | gust knots | rain 1hr in | rain 24hr in | rain mn in | humidity % | barometer mb |
| 20260504221801 | 83 | 56 | 0.9 | 7.8 | 0.00 | 0.00 | 0.00 | 67 | 1011.4 |
| 20260504221549 | 83 | 0 | 0.0 | 7.8 | 0.00 | 0.00 | 0.00 | 67 | 1011.8 |
| 20260504221300 | 83 | 30 | 2.6 | 7.8 | 0.00 | 0.00 | 0.00 | 67 | 1011.2 |
| 20260504221033 | 83 | 176 | 0.9 | 6.1 | 0.00 | 0.00 | 0.00 | 67 | 1011.3 |
| 20260504220303 | 83 | 231 | 0.9 | 6.1 | 0.00 | 0.00 | 0.00 | 67 | 1011.7 |
| 20260504220058 | 83 | 127 | 1.7 | 9.6 | 0.00 | 0.00 | 0.00 | 67 | 1011.6 |
| 20260504220021 | 83 | 168 | 0.9 | 6.1 | 0.00 | 0.00 | 0.00 | 67 | 1011.7 |
| 20260504215304 | 83 | 194 | 0.9 | 6.1 | 0.00 | 0.00 | 0.00 | 67 | 1011.6 |
| 20260504214802 | 83 | 300 | 1.7 | 7.8 | 0.00 | 0.00 | 0.00 | 67 | 1011.7 |
| 20260504214548 | 83 | 51 | 1.7 | 10.4 | 0.00 | 0.00 | 0.00 | 67 | 1011.9 |
| 20260504214302 | 83 | 257 | 0.9 | 11.3 | 0.00 | 0.00 | 0.00 | 67 | 1011.7 |
| 20260504213802 | 83 | 139 | 0.9 | 11.3 | 0.00 | 0.00 | 0.00 | 66 | 1011.7 |
| 20260504213302 | 83 | 200 | 3.5 | 9.6 | 0.00 | 0.00 | 0.00 | 66 | 1011.7 |
| 20260504213111 | 83 | 264 | 2.6 | 8.7 | 0.00 | 0.00 | 0.00 | 66 | 1012.0 |
| 20260504212802 | 84 | 113 | 1.7 | 7.8 | 0.00 | 0.00 | 0.00 | 67 | 1011.8 |
| 20260504212529 | 84 | 4 | 1.7 | 8.7 | 0.00 | 0.00 | 0.00 | 66 | 1011.9 |
| 20260504211802 | 84 | 219 | 1.7 | 8.7 | 0.00 | 0.00 | 0.00 | 66 | 1011.9 |
| 20260504211559 | 83 | 93 | 2.6 | 8.7 | 0.00 | 0.00 | 0.00 | 65 | 1012.1 |
| 20260504211302 | 84 | 26 | 0.9 | 8.7 | 0.00 | 0.00 | 0.00 | 66 | 1011.9 |
| 20260504210802 | 83 | 261 | 2.6 | 8.7 | 0.00 | 0.00 | 0.00 | 66 | 1012.2 |
| 20260504210303 | 84 | 208 | 1.7 | 8.7 | 0.00 | 0.00 | 0.00 | 66 | 1012.1 |
| 20260504210050 | 83 | 238 | 0.9 | 6.1 | 0.00 | 0.00 | 0.00 | 65 | 1012.5 |
| 20260504205802 | 84 | 98 | 0.9 | 6.1 | 0.00 | 0.00 | 0.00 | 66 | 1012.3 |
| 20260504205303 | 84 | 283 | 0.0 | 7.8 | 0.00 | 0.00 | 0.00 | 66 | 1012.4 |
| 20260504204802 | 84 | 336 | 0.9 | 7.8 | 0.00 | 0.00 | 0.00 | 65 | 1012.4 |
| 20260504204557 | 83 | 0 | 0.9 | 7.8 | 0.00 | 0.00 | 0.00 | 66 | 1012.7 |
| 20260504204526 | 84 | 20 | 4.3 | 7.8 | 0.00 | 0.00 | 0.00 | 66 | 1012.6 |
| 20260504203802 | 84 | 274 | 0.9 | 6.1 | 0.00 | 0.00 | 0.00 | 65 | 1012.6 |
| 20260504203302 | 84 | 269 | 0.9 | 6.1 | 0.00 | 0.00 | 0.00 | 66 | 1012.6 |
| 20260504203102 | 83 | 0 | 0.9 | 6.1 | 0.00 | 0.00 | 0.00 | 65 | 1012.8 |
| 20260504202802 | 84 | 146 | 0.9 | 6.1 | 0.00 | 0.00 | 0.00 | 65 | 1012.7 |
| 20260504202749 | 84 | 262 | 0.9 | 7.8 | 0.00 | 0.00 | 0.00 | 65 | 1012.7 |
| 20260504202024 | 85 | 236 | 1.7 | 7.8 | 0.00 | 0.00 | 0.00 | 64 | 1013.0 |
| 20260504201551 | 84 | 103 | 0.9 | 7.8 | 0.00 | 0.00 | 0.00 | 63 | 1013.1 |
| 20260504201301 | 85 | 320 | 1.7 | 7.8 | 0.00 | 0.00 | 0.00 | 64 | 1013.1 |
| 20260504200803 | 85 | 353 | 0.9 | 6.1 | 0.00 | 0.00 | 0.00 | 64 | 1013.0 |
| 20260504200520 | 85 | 87 | 0.9 | 4.3 | 0.00 | 0.00 | 0.00 | 65 | 1013.1 |
| 20260504200051 | 84 | 0 | 0.9 | 6.1 | 0.00 | 0.00 | 0.00 | 65 | 1013.5 |
| 20260504195803 | 84 | 153 | 0.9 | 7.0 | 0.00 | 0.00 | 0.00 | 65 | 1013.3 |
| 20260504195304 | 83 | 310 | 1.7 | 7.0 | 0.00 | 0.00 | 0.00 | 66 | 1013.2 |
| 20260504194802 | 83 | 330 | 0.0 | 8.7 | 0.00 | 0.00 | 0.00 | 68 | 1013.2 |
| 20260504194559 | 82 | 0 | 0.0 | 8.7 | 0.00 | 0.00 | 0.00 | 67 | 1013.4 |
| 20260504194527 | 83 | 165 | 0.0 | 8.7 | 0.00 | 0.00 | 0.00 | 68 | 1013.3 |
| 20260504193803 | 83 | 172 | 0.0 | 5.2 | 0.00 | 0.00 | 0.00 | 69 | 1013.5 |
| 20260504193303 | 83 | 58 | 0.9 | 6.1 | 0.00 | 0.00 | 0.00 | 68 | 1013.5 |
| 20260504193056 | 82 | 0 | 0.0 | 6.1 | 0.00 | 0.00 | 0.00 | 67 | 1013.8 |
| 20260504192801 | 83 | 335 | 1.7 | 6.1 | 0.00 | 0.00 | 0.00 | 67 | 1013.4 |
| 20260504192301 | 83 | 65 | 0.0 | 3.5 | 0.00 | 0.00 | 0.00 | 67 | 1013.5 |
| 20260504192020 | 83 | 150 | 0.9 | 5.2 | 0.00 | 0.00 | 0.00 | 67 | 1013.5 |
| 20260504191547 | 82 | 0 | 0.0 | 7.8 | 0.00 | 0.00 | 0.00 | 67 | 1013.9 |
| 20260504191520 | 83 | 356 | 0.9 | 6.1 | 0.00 | 0.00 | 0.00 | 68 | 1013.7 |
| 20260504190803 | 82 | 19 | 0.9 | 7.8 | 0.00 | 0.00 | 0.00 | 67 | 1013.7 |
| 20260504190303 | 83 | 203 | 0.0 | 7.8 | 0.00 | 0.00 | 0.00 | 68 | 1013.7 |
| 20260504190114 | 82 | 294 | 0.0 | 7.0 | 0.00 | 0.00 | 0.00 | 67 | 1014.1 |
| 20260504185802 | 83 | 304 | 0.9 | 7.0 | 0.00 | 0.00 | 0.00 | 68 | 1013.8 |
| 20260504185524 | 83 | 289 | 0.9 | 7.0 | 0.00 | 0.00 | 0.00 | 67 | 1013.9 |
| 20260504184800 | 83 | 231 | 1.7 | 5.2 | 0.00 | 0.00 | 0.00 | 66 | 1013.8 |
| 20260504184559 | 82 | 77 | 0.0 | 5.2 | 0.00 | 0.00 | 0.00 | 66 | 1014.1 |
| 20260504184300 | 83 | 250 | 0.9 | 5.2 | 0.00 | 0.00 | 0.00 | 66 | 1013.9 |
| 20260504184019 | 83 | 251 | 1.7 | 8.7 | 0.00 | 0.00 | 0.00 | 67 | 1013.9 |
| 20260504183254 | 82 | 200 | 0.9 | 8.7 | 0.00 | 0.00 | 0.00 | 68 | 1014.0 |
| 20260504183049 | 82 | 0 | 0.0 | 9.6 | 0.00 | 0.00 | 0.00 | 67 | 1014.1 |
| 20260504182753 | 82 | 25 | 1.7 | 6.1 | 0.00 | 0.00 | 0.00 | 68 | 1013.9 |
| 20260504182249 | 82 | 72 | 1.7 | 10.4 | 0.00 | 0.00 | 0.00 | 68 | 1014.1 |
| 20260504181748 | 82 | 274 | 1.7 | 10.4 | 0.00 | 0.00 | 0.00 | 68 | 1014.2 |
| 20260504181550 | 82 | 77 | 0.0 | 8.7 | 0.00 | 0.00 | 0.00 | 68 | 1014.3 |
| 20260504181246 | 82 | 134 | 0.9 | 7.0 | 0.00 | 0.00 | 0.00 | 69 | 1014.2 |
| 20260504180745 | 82 | 264 | 0.9 | 10.4 | 0.00 | 0.00 | 0.00 | 68 | 1014.3 |
| 20260504180243 | 81 | 263 | 0.9 | 10.4 | 0.00 | 0.00 | 0.00 | 68 | 1014.3 |
| 20260504180049 | 81 | 0 | 0.9 | 9.6 | 0.00 | 0.00 | 0.00 | 68 | 1014.4 |
| 20260504175740 | 82 | 344 | 0.9 | 10.4 | 0.00 | 0.00 | 0.00 | 68 | 1014.3 |
| 20260504175241 | 82 | 338 | 1.7 | 6.1 | 0.00 | 0.00 | 0.00 | 68 | 1014.3 |
| 20260504174737 | 82 | 99 | 0.0 | 6.1 | 0.00 | 0.00 | 0.00 | 69 | 1014.4 |
| 20260504174551 | 81 | 0 | 0.0 | 7.8 | 0.00 | 0.00 | 0.00 | 69 | 1014.6 |
| 20260504174236 | 81 | 286 | 0.9 | 9.6 | 0.00 | 0.00 | 0.00 | 69 | 1014.5 |
| 20260504173736 | 81 | 311 | 0.9 | 9.6 | 0.00 | 0.00 | 0.00 | 69 | 1014.4 |
| 20260504173235 | 81 | 140 | 0.0 | 4.3 | 0.00 | 0.00 | 0.00 | 69 | 1014.4 |
| 20260504173054 | 81 | 0 | 0.0 | 7.0 | 0.00 | 0.00 | 0.00 | 69 | 1014.7 |
| 20260504172734 | 81 | 272 | 0.0 | 7.0 | 0.00 | 0.00 | 0.00 | 69 | 1014.7 |
| 20260504172234 | 81 | 219 | 0.9 | 7.0 | 0.00 | 0.00 | 0.00 | 69 | 1014.8 |
| 20260504171953 | 80 | 286 | 0.0 | 6.1 | 0.00 | 0.00 | 0.00 | 69 | 1015.0 |
| 20260504171551 | 80 | 0 | 0.0 | 10.4 | 0.00 | 0.00 | 0.00 | 69 | 1015.3 |
| 20260504171232 | 80 | 256 | 0.9 | 7.0 | 0.00 | 0.00 | 0.00 | 69 | 1015.1 |
| 20260504170730 | 81 | 293 | 0.9 | 7.0 | 0.00 | 0.00 | 0.00 | 68 | 1014.9 |
| 20260504170458 | 81 | 160 | 0.0 | 5.2 | 0.00 | 0.00 | 0.00 | 69 | 1015.0 |
| 20260504160202 | 80 | 240 | 0.9 | 9.6 | 0.00 | 0.00 | 0.00 | 69 | 1015.2 |
| 20260504150920 | 79 | 197 | 1.7 | 8.7 | 0.00 | 0.00 | 0.00 | 73 | 1015.5 |
| 20260504150204 | 78 | 320 | 0.9 | 9.6 | 0.00 | 0.00 | 0.00 | 73 | 1015.6 |
| 20260504140921 | 76 | 195 | 0.0 | 7.8 | 0.00 | 0.00 | 0.00 | 78 | 1015.7 |
| 20260504140202 | 76 | 230 | 0.0 | 2.6 | 0.00 | 0.00 | 0.00 | 78 | 1015.8 |
| 20260504140104 | 75 | 308 | 0.0 | 3.5 | 0.00 | 0.00 | 0.00 | 77 | 1016.0 |
| 20260504130702 | 71 | 321 | 0.0 | 0.0 | 0.00 | 0.00 | 0.00 | 85 | 1016.1 |
| 20260504130421 | 70 | 321 | 0.0 | 0.9 | 0.00 | 0.00 | 0.00 | 85 | 1015.9 |
| 20260504110701 | 67 | 211 | 0.0 | 0.0 | 0.00 | 0.00 | 0.00 | 86 | 1015.6 |
| 20260504110202 | 67 | 211 | 0.0 | 0.0 | 0.00 | 0.00 | 0.00 | 86 | 1015.6 |
| 20260504110111 | 67 | 0 | 0.0 | 0.0 | 0.00 | 0.00 | 0.00 | 86 | 1015.9 |
| 20260504100425 | 68 | 211 | 0.0 | 0.0 | 0.00 | 0.00 | 0.00 | 85 | 1015.7 |
| 20260504090115 | 68 | 0 | 0.0 | 2.6 | 0.00 | 0.00 | 0.00 | 82 | 1016.3 |
| 20260504081640 | 69 | 345 | 0.0 | 1.7 | 0.00 | 0.00 | 0.00 | 82 | 1016.6 |
| 20260504081554 | 68 | 213 | 0.0 | 0.0 | 0.00 | 0.00 | 0.00 | 81 | 1017.0 |
| 20260504081138 | 69 | 48 | 0.0 | 0.9 | 0.00 | 0.00 | 0.00 | 81 | 1016.8 |
| 20260504080857 | 69 | 48 | 0.0 | 0.9 | 0.00 | 0.00 | 0.00 | 81 | 1016.8 |
| 20260504080355 | 69 | 359 | 0.0 | 0.0 | 0.00 | 0.00 | 0.00 | 81 | 1016.9 |
| 20260504080119 | 69 | 359 | 0.0 | 0.0 | 0.00 | 0.00 | 0.00 | 81 | 1016.9 |
| 20260504070107 | 69 | 238 | 0.0 | 0.0 | 0.00 | 0.00 | 0.00 | 79 | 1017.6 |
| 20260504050602 | 71 | 72 | 0.0 | 3.5 | 0.00 | 0.00 | 0.00 | 74 | 1019.0 |
| 20260504045823 | 72 | 155 | 0.0 | 3.5 | 0.00 | 0.00 | 0.00 | 73 | 1019.3 |
| 20260504045101 | 72 | 155 | 0.0 | 3.5 | 0.00 | 0.00 | 0.00 | 73 | 1019.3 |
| 20260504044601 | 72 | 3 | 0.0 | 3.5 | 0.00 | 0.00 | 0.00 | 73 | 1019.4 |
| 20260504044102 | 72 | 139 | 0.0 | 2.6 | 0.00 | 0.00 | 0.00 | 73 | 1019.4 |
| 20260504043602 | 72 | 250 | 0.0 | 6.1 | 0.00 | 0.00 | 0.00 | 72 | 1019.5 |
| 20260504043103 | 72 | 65 | 1.7 | 6.1 | 0.00 | 0.00 | 0.00 | 72 | 1019.6 |
| 20260504043050 | 72 | 155 | 0.9 | 5.2 | 0.00 | 0.00 | 0.00 | 72 | 1019.8 |
| 20260504042819 | 72 | 122 | 0.9 | 4.3 | 0.00 | 0.00 | 0.00 | 72 | 1019.6 |
| 20260504042102 | 72 | 267 | 0.0 | 3.5 | 0.00 | 0.00 | 0.00 | 72 | 1019.5 |
| 20260504041824 | 72 | 150 | 0.9 | 3.5 | 0.00 | 0.00 | 0.00 | 72 | 1019.5 |
| 20260504041550 | 72 | 0 | 0.0 | 4.3 | 0.00 | 0.00 | 0.00 | 71 | 1019.7 |
| 20260504041103 | 72 | 150 | 0.0 | 2.6 | 0.00 | 0.00 | 0.00 | 71 | 1019.5 |
| 20260504040602 | 72 | 134 | 0.0 | 3.5 | 0.00 | 0.00 | 0.00 | 71 | 1019.5 |
| 20260504040107 | 73 | 335 | 0.9 | 3.5 | 0.00 | 0.00 | 0.00 | 71 | 1019.5 |
| 20260504040056 | 72 | 0 | 0.0 | 2.6 | 0.00 | 0.00 | 0.00 | 70 | 1019.8 |
| 20260504035601 | 73 | 32 | 0.0 | 5.2 | 0.00 | 0.00 | 0.00 | 71 | 1019.4 |
| 20260504035101 | 73 | 60 | 0.9 | 5.2 | 0.00 | 0.00 | 0.00 | 70 | 1019.6 |
| 20260504034601 | 73 | 31 | 0.9 | 5.2 | 0.00 | 0.00 | 0.00 | 70 | 1019.7 |
| 20260504034554 | 72 | 0 | 0.0 | 5.2 | 0.00 | 0.00 | 0.00 | 70 | 1019.9 |
| 20260504034103 | 73 | 191 | 0.0 | 5.2 | 0.00 | 0.00 | 0.00 | 70 | 1019.6 |
| 20260504033602 | 73 | 288 | 0.9 | 5.2 | 0.00 | 0.00 | 0.00 | 70 | 1019.7 |
| 20260504033321 | 73 | 53 | 0.0 | 3.5 | 0.00 | 0.00 | 0.00 | 69 | 1019.4 |
| 20260504033056 | 73 | 59 | 0.0 | 3.5 | 0.00 | 0.00 | 0.00 | 69 | 1019.6 |
| 20260504032817 | 73 | 86 | 0.0 | 3.5 | 0.00 | 0.00 | 0.00 | 69 | 1019.5 |
| 20260504032102 | 73 | 44 | 0.0 | 3.5 | 0.00 | 0.00 | 0.00 | 69 | 1019.5 |
| 20260504031828 | 73 | 180 | 0.0 | 3.5 | 0.00 | 0.00 | 0.00 | 68 | 1019.4 |
| 20260504031550 | 73 | 0 | 0.0 | 4.3 | 0.00 | 0.00 | 0.00 | 68 | 1019.7 |
| 20260504031103 | 73 | 259 | 0.0 | 5.2 | 0.00 | 0.00 | 0.00 | 68 | 1019.4 |
| 20260504030602 | 73 | 129 | 0.0 | 5.2 | 0.00 | 0.00 | 0.00 | 67 | 1019.3 |
| 20260504030107 | 74 | 226 | 0.9 | 5.2 | 0.00 | 0.00 | 0.00 | 67 | 1019.3 |
| 20260504030052 | 73 | 0 | 0.0 | 4.3 | 0.00 | 0.00 | 0.00 | 66 | 1019.6 |
| 20260504025600 | 74 | 20 | 1.7 | 7.0 | 0.00 | 0.00 | 0.00 | 67 | 1019.4 |
| 20260504025101 | 74 | 321 | 1.7 | 7.0 | 0.00 | 0.00 | 0.00 | 66 | 1019.3 |
| 20260504024828 | 74 | 217 | 0.9 | 7.0 | 0.00 | 0.00 | 0.00 | 66 | 1019.1 |
| 20260504024548 | 73 | 98 | 0.0 | 7.0 | 0.00 | 0.00 | 0.00 | 65 | 1019.4 |
| 20260504024323 | 74 | 195 | 0.0 | 7.0 | 0.00 | 0.00 | 0.00 | 66 | 1019.1 |
| 20260504023601 | 74 | 258 | 1.7 | 7.0 | 0.00 | 0.00 | 0.00 | 65 | 1019.1 |
| 20260504023101 | 74 | 157 | 1.7 | 7.0 | 0.00 | 0.00 | 0.00 | 65 | 1018.9 |
| 20260504023048 | 74 | 182 | 0.9 | 7.0 | 0.00 | 0.00 | 0.00 | 64 | 1019.2 |
| 20260504022601 | 74 | 216 | 0.0 | 5.2 | 0.00 | 0.00 | 0.00 | 64 | 1018.9 |
| 20260504022101 | 74 | 285 | 0.9 | 6.1 | 0.00 | 0.00 | 0.00 | 64 | 1018.8 |
| 20260504021602 | 75 | 181 | 0.9 | 6.1 | 0.00 | 0.00 | 0.00 | 64 | 1018.9 |
| 20260504021547 | 74 | 0 | 0.9 | 6.1 | 0.00 | 0.00 | 0.00 | 63 | 1019.1 |
| 20260504021057 | 75 | 170 | 0.9 | 7.0 | 0.00 | 0.00 | 0.00 | 63 | 1018.6 |
| 20260504020550 | 75 | 225 | 0.9 | 7.0 | 0.00 | 0.00 | 0.00 | 63 | 1018.8 |
| 20260504020310 | 75 | 103 | 0.9 | 5.2 | 0.00 | 0.00 | 0.00 | 62 | 1018.6 |
| 20260504020052 | 75 | 110 | 0.9 | 7.0 | 0.00 | 0.00 | 0.00 | 62 | 1018.9 |
| 20260504015547 | 75 | 148 | 0.9 | 7.8 | 0.00 | 0.00 | 0.00 | 62 | 1018.6 |
| 20260504015250 | 76 | 220 | 1.7 | 8.7 | 0.00 | 0.00 | 0.00 | 61 | 1018.6 |
| 20260504014542 | 75 | 337 | 0.9 | 8.7 | 0.00 | 0.00 | 0.00 | 60 | 1018.7 |
| 20260504014530 | 76 | 309 | 0.9 | 8.7 | 0.00 | 0.00 | 0.00 | 61 | 1018.5 |
| 20260504014031 | 76 | 317 | 1.7 | 7.0 | 0.00 | 0.00 | 0.00 | 60 | 1018.4 |
| 20260504013801 | 76 | 302 | 1.7 | 7.0 | 0.00 | 0.00 | 0.00 | 60 | 1018.4 |
| 20260504013051 | 76 | 0 | 0.0 | 2.6 | 0.00 | 0.00 | 0.00 | 59 | 1018.5 |
| 20260504013030 | 76 | 257 | 0.9 | 3.5 | 0.00 | 0.00 | 0.00 | 59 | 1018.2 |
| 20260504012749 | 76 | 168 | 0.0 | 3.5 | 0.00 | 0.00 | 0.00 | 58 | 1018.2 |
| 20260504012029 | 76 | 65 | 0.0 | 5.2 | 0.00 | 0.00 | 0.00 | 58 | 1018.0 |
| 20260504011550 | 76 | 0 | 0.9 | 5.2 | 0.00 | 0.00 | 0.00 | 57 | 1018.3 |
| 20260504011529 | 77 | 262 | 0.9 | 5.2 | 0.00 | 0.00 | 0.00 | 57 | 1018.0 |
| 20260504011029 | 77 | 301 | 0.9 | 4.3 | 0.00 | 0.00 | 0.00 | 57 | 1018.1 |
| 20260504010529 | 77 | 180 | 0.0 | 8.7 | 0.00 | 0.00 | 0.00 | 56 | 1018.1 |
| 20260504010055 | 77 | 0 | 0.9 | 7.8 | 0.00 | 0.00 | 0.00 | 55 | 1018.3 |
| 20260504010028 | 77 | 175 | 0.9 | 8.7 | 0.00 | 0.00 | 0.00 | 55 | 1018.1 |
| 20260504005529 | 78 | 198 | 0.9 | 6.1 | 0.00 | 0.00 | 0.00 | 55 | 1018.1 |
| 20260504005028 | 78 | 248 | 0.0 | 6.1 | 0.00 | 0.00 | 0.00 | 55 | 1018.1 |
| 20260504004547 | 78 | 0 | 0.0 | 4.3 | 0.00 | 0.00 | 0.00 | 54 | 1018.4 |
| 20260504004531 | 78 | 321 | 0.9 | 5.2 | 0.00 | 0.00 | 0.00 | 54 | 1018.1 |
| 20260504004030 | 78 | 1 | 0.0 | 7.0 | 0.00 | 0.00 | 0.00 | 54 | 1018.0 |
| 20260504003530 | 78 | 307 | 0.0 | 7.0 | 0.00 | 0.00 | 0.00 | 53 | 1017.9 |
| 20260504003046 | 78 | 0 | 0.9 | 5.2 | 0.00 | 0.00 | 0.00 | 52 | 1018.2 |
| 20260504003030 | 79 | 207 | 0.9 | 4.3 | 0.00 | 0.00 | 0.00 | 53 | 1018.0 |
| 20260504002529 | 79 | 207 | 0.0 | 7.0 | 0.00 | 0.00 | 0.00 | 53 | 1018.0 |
| 20260504002250 | 80 | 162 | 0.0 | 7.0 | 0.00 | 0.00 | 0.00 | 52 | 1017.9 |
| 20260504001602 | 80 | 157 | 0.0 | 5.2 | 0.00 | 0.00 | 0.00 | 51 | 1018.2 |
| 20260504001529 | 80 | 224 | 0.9 | 4.3 | 0.00 | 0.00 | 0.00 | 52 | 1018.0 |
| 20260504001029 | 80 | 41 | 0.9 | 7.0 | 0.00 | 0.00 | 0.00 | 51 | 1018.0 |
| 20260504000529 | 80 | 245 | 0.9 | 7.0 | 0.00 | 0.00 | 0.00 | 51 | 1018.0 |
| 20260504000049 | 80 | 251 | 1.7 | 7.0 | 0.00 | 0.00 | 0.00 | 50 | 1018.2 |
| 20260504000029 | 81 | 97 | 1.7 | 7.0 | 0.00 | 0.00 | 0.00 | 50 | 1018.0 |
| 20260503235528 | 81 | 205 | 1.7 | 7.0 | 0.00 | 0.00 | 0.00 | 50 | 1017.8 |
| 20260503235029 | 81 | 103 | 1.7 | 7.0 | 0.00 | 0.00 | 0.00 | 50 | 1017.8 |
| 20260503234549 | 81 | 0 | 0.0 | 6.1 | 0.00 | 0.00 | 0.00 | 49 | 1017.9 |
| 20260503234531 | 81 | 159 | 0.9 | 4.3 | 0.00 | 0.00 | 0.00 | 50 | 1017.7 |
| 20260503234516 | 81 | 233 | 0.0 | 7.8 | 0.00 | 0.00 | 0.00 | 50 | 1017.7 |
| 20260503233523 | 81 | 228 | 1.7 | 7.8 | 0.00 | 0.00 | 0.00 | 49 | 1017.7 |
| 20260503233044 | 81 | 287 | 2.6 | 7.8 | 0.00 | 0.00 | 0.00 | 48 | 1018.1 |
| 20260503233020 | 82 | 205 | 3.5 | 7.0 | 0.00 | 0.00 | 0.00 | 48 | 1017.9 |
| 20260503232748 | 82 | 51 | 0.9 | 3.5 | 0.00 | 0.00 | 0.00 | 49 | 1017.9 |
| 20260503232011 | 83 | 268 | 0.0 | 3.5 | 0.00 | 0.00 | 0.00 | 48 | 1017.9 |
| 20260503231547 | 82 | 40 | 0.0 | 5.2 | 0.00 | 0.00 | 0.00 | 47 | 1018.2 |
| 20260503231512 | 82 | 29 | 0.0 | 5.2 | 0.00 | 0.00 | 0.00 | 48 | 1017.9 |
| 20260503231011 | 82 | 332 | 1.7 | 5.2 | 0.00 | 0.00 | 0.00 | 48 | 1018.0 |
| 20260503230738 | 83 | 123 | 0.9 | 4.3 | 0.00 | 0.00 | 0.00 | 48 | 1018.1 |
| 20260503230048 | 83 | 0 | 0.0 | 4.3 | 0.00 | 0.00 | 0.00 | 47 | 1018.2 |
| 20260503230005 | 83 | 196 | 0.9 | 4.3 | 0.00 | 0.00 | 0.00 | 47 | 1018.0 |
| 20260503225503 | 83 | 334 | 0.9 | 5.2 | 0.00 | 0.00 | 0.00 | 47 | 1018.0 |
| 20260503225004 | 84 | 118 | 0.0 | 5.2 | 0.00 | 0.00 | 0.00 | 46 | 1018.0 |
| 20260503224549 | 84 | 188 | 0.0 | 6.1 | 0.00 | 0.00 | 0.00 | 45 | 1018.3 |
| 20260503224503 | 84 | 7 | 0.0 | 6.1 | 0.00 | 0.00 | 0.00 | 47 | 1018.0 |
| 20260503224002 | 84 | 255 | 0.9 | 6.1 | 0.00 | 0.00 | 0.00 | 46 | 1018.1 |
| 20260503223502 | 84 | 290 | 0.0 | 3.5 | 0.00 | 0.00 | 0.00 | 46 | 1018.2 |
| 20260503223059 | 83 | 131 | 0.0 | 3.5 | 0.00 | 0.00 | 0.00 | 46 | 1018.6 |
| 20260503223002 | 84 | 297 | 0.0 | 4.3 | 0.00 | 0.00 | 0.00 | 47 | 1018.4 |
| 20260503222501 | 83 | 123 | 0.0 | 4.3 | 0.00 | 0.00 | 0.00 | 47 | 1018.4 |
| 20260503222002 | 83 | 310 | 0.9 | 4.3 | 0.00 | 0.00 | 0.00 | 48 | 1018.4 |